[[{"header":{"parameterUnit":"m.s-1","parameterCategory":1,"la1":30.2991,"la2":30.254,"lo1":-89.0895,"lo2":-89.0444,"dy":0.0017,"dx":0.0017,"nx":28,"ny":28,"refTime":"2025-03-03T03:00:00:Z","depth":0,"parameterNumber":2,"parameterNumberName":"U-component_of_WINDS"},"data":[0,0,0,0,0,0,0,0,0,0,0,0,0,0,0,0,0,0,0,0,0,0,0,0,0,0,0,0,0,0,0,0,0,0,0,0,0,0,0,0,0,0,0,0,0,0,0,0,0,0,0,0,0,0,0,0,0,0,-4.8158,-4.8159,0,-4.8295,-4.8296,-4.8298,-4.8295,-4.8293,-4.8291,-4.829,-4.8431,-4.8436,-4.8442,0,0,0,0,0,0,0,0,0,0,0,0,0,-4.7897,-4.7901,-4.8158,-4.8159,-4.8161,-4.8294,-4.8296,-4.8298,-4.8295,-4.8293,-4.8291,-4.8289,-4.8429,-4.8436,-4.8442,0,0,0,0,0,0,0,0,0,0,0,0,0,-4.8019,-4.7903,-4.8157,-4.8176,-4.8179,-4.8294,-4.8296,-4.8298,-4.8296,-4.8293,-4.829,-4.8288,-4.8427,-4.8435,-4.8443,-4.8549,0,0,-4.8468,-4.8472,0,0,0,0,0,0,0,0,-4.8012,-4.8029,-4.8171,-4.8175,-4.8178,-4.8275,-4.8256,-4.8383,-4.8297,-4.8252,-4.829,-4.8286,-4.8381,-4.8393,-4.8425,-4.8556,-4.8562,-4.8469,-4.8474,-4.8477,-4.848,0,0,0,0,0,0,0,-4.8004,-4.8023,-4.8212,-4.8174,-4.8178,-4.8178,-4.8192,-4.828,-4.833,-4.8255,-4.8255,-4.8272,-4.8383,-4.8417,-4.8428,-4.8564,-4.8469,-4.8476,-4.8481,-4.8484,-4.8789,-4.8792,0,0,0,0,0,0,-4.7991,-4.8016,-4.8207,-4.8216,-4.8087,-4.8185,-4.8201,-4.8247,-4.8329,-4.8339,-4.8274,-4.8271,-4.8404,-4.8419,-4.8433,-4.8562,-4.8477,-4.8485,-4.849,-4.8786,-4.879,-4.8793,0,0,0,0,0,0,-4.7986,-4.8008,-4.8202,-4.8116,-4.8141,-4.8192,-4.8244,-4.8251,-4.8285,-4.8343,-4.8352,-4.8299,-4.8403,-4.8422,-4.852,-4.8567,-4.8489,-4.8496,-4.8782,-4.8787,-4.8791,-4.8821,0,0,0,0,0,0,-4.7978,-4.8006,-4.8046,-4.8117,-4.8145,-4.8286,-4.8247,-4.8256,-4.8299,-4.8297,-4.837,-4.8379,-4.8402,-4.8508,-4.8528,-4.8577,-4.8503,-4.8778,-4.8784,-4.879,-4.8816,-4.8826,-4.8835,0,0,0,0,0,-4.7969,-4.805,-4.8048,-4.8072,-4.8196,-4.8289,-4.8305,-4.8329,-4.8303,-4.8344,-4.8382,-4.8377,-4.8559,-4.8518,-4.8541,-4.8593,-4.8775,-4.8782,-4.8789,-4.8812,-4.8824,-4.8835,0,0,0,0,0,0,-4.7983,-4.8059,-4.8059,-4.8164,-4.822,-4.8288,-4.834,-4.8342,-4.8406,-4.8401,-4.8429,-4.8446,-4.8544,-4.8579,-4.8532,-4.87,-4.8664,-4.8676,-4.8673,-4.8685,-4.8695,-4.8683,-4.8509,0,0,0,0,0,-4.7999,-4.8067,-4.813,-4.8217,-4.8245,-4.8288,-4.8329,-4.8343,-4.8402,-4.8426,-4.8471,-4.8528,-4.8599,-4.8644,-4.8712,-4.8822,-4.8838,-4.8869,-4.8878,-4.8886,-4.8895,-4.8956,-4.897,-4.8816,-4.8816,-4.8816,0,0,-4.8031,-4.8081,-4.8122,-4.8221,-4.8266,-4.8336,-4.8308,-4.8383,-4.8436,-4.8437,-4.8533,-4.8568,-4.8635,-4.8739,-4.8787,-4.8771,-4.8942,-4.8895,-4.89,-4.8906,-4.8964,-4.8979,-4.8992,-4.8821,-4.882,-4.882,0,0,-4.8126,-4.8171,-4.8248,-4.8294,-4.8362,-4.8391,-4.8409,-4.8478,-4.8501,-4.8597,-4.86,-4.8664,-4.8785,-4.8832,-4.8871,-4.8986,-4.8984,-4.9008,-4.9056,-4.9115,-4.9127,-4.9138,-4.9177,-4.9191,-4.9018,-4.9018,-4.9018,0,-4.8157,-4.8263,-4.8288,-4.8364,-4.8407,-4.8413,-4.8491,-4.8535,-4.8622,-4.8652,-4.8633,-4.8785,-4.883,-4.8945,-4.8973,-4.9006,-4.9028,-4.8998,-4.9123,-4.9134,-4.9145,-4.9183,-4.9198,-4.902,-4.902,-4.902,-4.9019,0,-4.8298,-4.8371,-4.8426,-4.8509,-4.8559,-4.8636,-4.8674,-4.8722,-4.8733,-4.8763,-4.8862,-4.8917,-4.8996,-4.9025,-4.9036,-4.9142,-4.913,-4.9117,-4.9081,-4.9161,-4.9197,-4.9212,-4.9023,-4.9023,-4.9022,-4.9021,0,0,-4.8403,-4.85,-4.852,-4.8558,-4.8635,-4.8692,-4.877,-4.8847,-4.8887,-4.8948,-4.9014,-4.9117,-4.9106,-4.9151,-4.9168,-4.922,-4.9306,-4.92,-4.9202,-4.9216,-4.9426,-4.9434,-4.945,-4.9306,-4.9309,-4.9312,-4.942,0,-4.8504,-4.8641,-4.8667,-4.8787,-4.8855,-4.8862,-4.893,-4.8985,-4.9016,-4.9079,-4.9115,-4.9186,-4.9166,-4.9194,-4.9246,-4.9284,-4.9348,-4.9277,-4.9367,-4.937,-4.9348,-4.9469,-4.9478,-4.9577,-4.9434,-4.9437,-4.9438,0,-4.864,-4.8703,-4.883,-4.8898,-4.8927,-4.8988,-4.9061,-4.9121,-4.9184,-4.9203,-4.9255,-4.9266,-4.9348,-4.9311,-4.9424,-4.9375,-4.9414,-4.9439,-4.9444,-4.9451,-4.9407,-4.9478,-4.9609,-4.9623,-4.9461,-4.946,-4.9458,0,-4.8702,-4.882,-4.891,-4.8943,-4.9025,-4.9067,-4.9103,-4.9164,-4.9208,-4.9273,-4.9303,-4.9377,-4.9416,-4.9474,-4.9505,-4.9475,-4.9616,-4.9581,-4.9634,-4.9633,-4.9661,-4.9659,-4.9798,-4.969,-4.969,-4.969,-4.9689,0,-4.8811,-4.8887,-4.8939,-4.8994,-4.9081,-4.9111,-4.9196,-4.9232,-4.9286,-4.9349,-4.9361,-4.942,-4.9459,-4.9524,-4.955,-4.9639,-4.9658,-4.9676,-4.9681,-4.9673,-4.9671,-4.9697,-4.9691,-4.9694,-4.9693,-4.9692,-4.9691,0,-4.8893,-4.8931,-4.903,-4.91,-4.9119,-4.918,-4.924,-4.9295,-4.9327,-4.9407,-4.9427,-4.9479,-4.9556,-4.9594,-4.969,-4.9707,-4.9808,-4.981,-4.9786,-4.9788,-4.9838,-4.9832,-4.9998,-5.0021,-4.9899,-4.99,-4.9901,0,-4.8959,-4.9018,-4.9095,-4.9137,-4.9174,-4.9244,-4.929,-4.9323,-4.937,-4.9447,-4.9493,-4.957,-4.9634,-4.9758,-4.9804,-4.9878,-4.988,-4.9934,-4.9891,-4.9882,-4.9879,-4.9874,-4.988,-4.994,-4.9941,-4.9942,-4.9943,0,-4.9072,-4.9088,-4.9153,-4.9226,-4.928,-4.9339,-4.9397,-4.9432,-4.9474,-4.9527,-4.9606,-4.9656,-4.9754,-4.9831,-4.9909,-4.9947,-4.9952,-4.9956,-4.9972,-4.9964,-4.9947,-4.9955,-4.9805,-4.9952,-4.9951,-4.995,-4.995,-4.9949,-4.9147,-4.92,-4.9262,-4.9334,-4.9382,-4.9436,-4.949,-4.953,-4.9596,-4.9678,-4.9694,-4.9778,-4.9841,-4.9945,-4.9986,-5.0053,-5.0041,-5.0064,-5.007,-5.0074,-5.0076,-4.9938,-5.0067,-5.0067,-5.0067,-5.0067,-5.0067,0,-4.9259,-4.9299,-4.9366,-4.9447,-4.9504,-4.9505,-4.9569,-4.9617,-4.969,-4.9748,-4.9811,-4.9902,-4.9977,-5.003,-5.0107,-5.015,-5.0154,-5.0169,-5.0165,-5.0173,-5.0083,-5.0061,-5.0164,-5.0164,-5.0164,-5.0164,-5.0164,-5.0164,-4.9324,-4.9412,-4.9436,-4.9549,-4.9589,-4.9671,-4.9707,-4.9758,-4.9804,-4.9905,-4.9967,-5.0001,-5.0057,-5.0138,-5.0208,-5.0221,-5.0248,-5.0263,-5.0276,-5.019,-5.018,-5.017,-5.0149,-5.0269,-5.0269,-5.0361,-5.0362,-5.0362]},{"header":{"parameterUnit":"m.s-1","parameterCategory":1,"la1":30.2991,"la2":30.254,"lo1":-89.0895,"lo2":-89.0444,"dy":0.0017,"dx":0.0017,"nx":28,"ny":28,"refTime":"2025-03-03T03:00:00:Z","depth":0,"parameterNumber":3,"parameterNumberName":"V-component_of_WINDS"},"data":[0,0,0,0,0,0,0,0,0,0,0,0,0,0,0,0,0,0,0,0,0,0,0,0,0,0,0,0,0,0,0,0,0,0,0,0,0,0,0,0,0,0,0,0,0,0,0,0,0,0,0,0,0,0,0,0,0,0,4.423,4.4231,0,4.4317,4.4318,4.4319,4.4312,4.4311,4.4309,4.4308,4.4398,4.4401,4.4405,0,0,0,0,0,0,0,0,0,0,0,0,0,4.4059,4.4062,4.423,4.4231,4.4232,4.4317,4.4318,4.4319,4.4312,4.431,4.4309,4.4307,4.4397,4.4401,4.4405,0,0,0,0,0,0,0,0,0,0,0,0,0,4.4139,4.4063,4.423,4.4239,4.424,4.4317,4.4318,4.432,4.4312,4.431,4.4308,4.4307,4.4395,4.44,4.4406,4.4479,0,0,4.4422,4.4425,0,0,0,0,0,0,0,0,4.4134,4.4145,4.4236,4.4238,4.424,4.4302,4.4291,4.4373,4.4313,4.4285,4.4308,4.4306,4.4367,4.4375,4.4396,4.4484,4.4487,4.4423,4.4426,4.4429,4.443,0,0,0,0,0,0,0,4.4129,4.4141,4.4264,4.4238,4.424,4.4239,4.4248,4.4307,4.4336,4.4287,4.4287,4.4297,4.4368,4.4391,4.4398,4.4489,4.4423,4.4428,4.4431,4.4433,4.4645,4.4647,0,0,0,0,0,0,4.4121,4.4137,4.4262,4.4267,4.4181,4.4244,4.4254,4.4284,4.4336,4.4342,4.4299,4.4297,4.4382,4.4392,4.4401,4.4492,4.4429,4.4434,4.4437,4.4642,4.4645,4.4648,0,0,0,0,0,0,4.4117,4.4132,4.4258,4.4202,4.4218,4.4249,4.4283,4.4287,4.4309,4.4345,4.435,4.4316,4.4381,4.4393,4.4461,4.4495,4.4436,4.4441,4.4639,4.4643,4.4646,4.4675,0,0,0,0,0,0,4.4112,4.4131,4.4158,4.4202,4.4221,4.4315,4.4285,4.429,4.4318,4.4316,4.4362,4.4368,4.438,4.4453,4.4466,4.4502,4.4445,4.4636,4.4641,4.4645,4.4671,4.4679,4.4685,0,0,0,0,0,4.4106,4.4162,4.416,4.4175,4.4256,4.4317,4.4328,4.4341,4.4321,4.435,4.4373,4.4366,4.4489,4.4459,4.4475,4.4512,4.4634,4.464,4.4645,4.4667,4.4677,4.4685,0,0,0,0,0,0,4.412,4.4168,4.4166,4.4237,4.4274,4.4316,4.4352,4.4351,4.4393,4.4389,4.4404,4.4415,4.4483,4.4504,4.447,4.4588,4.4559,4.4568,4.4571,4.4581,4.4588,4.4582,4.445,0,0,0,0,0,4.4132,4.4177,4.4217,4.4276,4.4295,4.4321,4.4348,4.4355,4.4393,4.4408,4.4436,4.4474,4.4522,4.4552,4.4598,4.4674,4.4685,4.4708,4.4715,4.4721,4.4728,4.4773,4.4784,4.4665,4.4665,4.4665,0,0,4.4156,4.4188,4.4215,4.428,4.4309,4.4357,4.4333,4.4384,4.4421,4.4416,4.4482,4.4504,4.4547,4.462,4.4654,4.464,4.4764,4.4728,4.4732,4.4736,4.478,4.4791,4.4801,4.4669,4.4668,4.4667,0,0,4.4224,4.4252,4.4306,4.4336,4.4381,4.4398,4.4411,4.4455,4.447,4.4536,4.4534,4.4578,4.4659,4.4691,4.4717,4.4802,4.4798,4.4816,4.4854,4.4898,4.4907,4.4916,4.4948,4.4959,4.4823,4.4823,4.4823,0,4.4249,4.432,4.4334,4.4387,4.4416,4.4415,4.4471,4.4499,4.4556,4.4577,4.4562,4.4665,4.4694,4.4775,4.4796,4.4817,4.4834,4.481,4.4905,4.4913,4.4921,4.4952,4.4964,4.4825,4.4825,4.4825,4.4825,0,4.4349,4.4399,4.4438,4.4494,4.4528,4.4581,4.4604,4.4637,4.4642,4.4662,4.4731,4.4766,4.482,4.484,4.4844,4.4923,4.4914,4.4901,4.4873,4.4935,4.4964,4.4975,4.4828,4.4827,4.4827,4.4826,0,0,4.4427,4.4492,4.4506,4.4533,4.4583,4.4623,4.4678,4.4731,4.4759,4.48,4.4847,4.4917,4.4907,4.4937,4.4946,4.4984,4.5052,4.4968,4.4969,4.4983,4.5143,4.5152,4.5165,4.505,4.5052,4.5054,4.514,0,4.4502,4.4599,4.4614,4.4699,4.4747,4.4749,4.4797,4.4834,4.4854,4.4899,4.4921,4.4971,4.4953,4.4972,4.501,4.5035,4.5084,4.5029,4.5095,4.5098,4.5085,4.518,4.519,4.5269,4.5151,4.5153,4.5154,0,4.4601,4.4645,4.4736,4.4783,4.4803,4.4846,4.4897,4.4939,4.4982,4.4995,4.503,4.5036,4.5095,4.5064,4.5146,4.5109,4.5137,4.5154,4.5158,4.5165,4.513,4.5191,4.5294,4.5307,4.5172,4.517,4.5169,0,4.4651,4.4733,4.4799,4.4821,4.4877,4.4907,4.4932,4.4973,4.5005,4.505,4.5071,4.5123,4.5151,4.5192,4.5211,4.5187,4.5294,4.5264,4.5307,4.5306,4.5329,4.5327,4.5439,4.5346,4.5346,4.5345,4.5345,0,4.4733,4.4789,4.4822,4.4862,4.4926,4.4944,4.5006,4.503,4.5067,4.5113,4.5118,4.5161,4.5184,4.5232,4.5248,4.5315,4.5327,4.534,4.5344,4.534,4.5339,4.5359,4.5355,4.5349,4.5348,4.5347,4.5347,0,4.48,4.4824,4.4895,4.4943,4.4956,4.5001,4.5042,4.5083,4.5104,4.5162,4.5177,4.5211,4.5267,4.5291,4.536,4.5371,4.5448,4.5447,4.5434,4.5435,4.5478,4.5474,4.5607,4.5627,4.5519,4.552,4.5521,0,4.4851,4.4894,4.4947,4.4978,4.5004,4.5054,4.5087,4.5107,4.5142,4.5196,4.523,4.5287,4.5333,4.5423,4.5454,4.5508,4.5509,4.5552,4.5517,4.5513,4.5512,4.5509,4.5515,4.5559,4.556,4.5561,4.5561,0,4.494,4.495,4.4997,4.505,4.509,4.5132,4.5173,4.5199,4.5226,4.5264,4.5322,4.5359,4.543,4.5487,4.5543,4.557,4.5571,4.5573,4.5586,4.5583,4.5574,4.5581,4.5453,4.5569,4.5568,4.5568,4.5567,4.5567,4.5001,4.504,4.5084,4.5138,4.5171,4.5211,4.5251,4.5278,4.5327,4.5387,4.5396,4.5459,4.5504,4.5579,4.5608,4.5659,4.5648,4.5666,4.5671,4.5676,4.568,4.5565,4.5669,4.5669,4.5668,4.5668,4.5668,0,4.5092,4.5121,4.5169,4.5228,4.5271,4.5268,4.5314,4.5351,4.5406,4.5447,4.5493,4.5562,4.5618,4.5654,4.5711,4.5745,4.5747,4.5759,4.5757,4.5764,4.5685,4.5668,4.5756,4.5756,4.5756,4.5756,4.5756,4.5756,4.5144,4.5211,4.5227,4.5312,4.5341,4.5402,4.543,4.5467,4.55,4.5576,4.5623,4.5646,4.5687,4.5747,4.5799,4.5809,4.583,4.5843,4.5853,4.5778,4.5769,4.576,4.5745,4.5848,4.5848,4.5928,4.5928,4.5929]}]]